Printer-friendly version

IAU Minor Planet Center

Minor Planet Center

MPEC 2008-F49 : 2008 FE5

The following Minor Planet Electronic Circular may be linked-to from your own Web pages, but must not otherwise be redistributed electronically.


Read MPEC 2008-F48 Read MPEC 2008-F50


M.P.E.C. 2008-F49                                Issued 2008 Mar. 29, 02:26 UT

     The Minor Planet Electronic Circulars contain information on unusual
         minor planets and routine data on comets.  They are published
   on behalf of Commission 20 of the International Astronomical Union by the
          Minor Planet Center, Smithsonian Astrophysical Observatory,
                          Cambridge, MA 02138, U.S.A.

             Prepared using the Tamkin Foundation Computer Network

                              MPC@CFA.HARVARD.EDU
          URL http://www.cfa.harvard.edu/iau/mpc.html  ISSN 1523-6714

                                   2008 FE5

Observations:
     K08F05E* C2008 03 28.27661 11 52 10.45 +03 53 53.5          20.2 V EF049G96
     K08F05E  C2008 03 28.28166 11 52 09.33 +03 53 33.6          20.2 V EF049G96
     K08F05E  C2008 03 28.28672 11 52 08.22 +03 53 13.7          20.3 V EF049G96
     K08F05E  C2008 03 28.29172 11 52 07.10 +03 52 54.0          20.3 V EF049G96
     K08F05E  C2008 03 28.31433 11 52 02.17 +03 51 25.0          19.9 V EF049G96
     K08F05E  C2008 03 28.32101 11 52 00.69 +03 50 58.4          19.9 V EF049G96
     K08F05E  C2008 03 28.32764 11 51 59.25 +03 50 32.6          20.1 V EF049G96
     K08F05E  C2008 03 28.33429 11 51 57.81 +03 50 06.3          20.1 V EF049G96
     K08F05E  C2008 03 28.89343 11 50 06.04 +03 13 39.6                 EF049J95
     K08F05E  C2008 03 28.90000 11 50 04.77 +03 13 13.6          19.9 R EF049J95
     K08F05E  C2008 03 28.92526 11 49 59.46 +03 11 37.3                 EF049J95
     K08F05E  C2008 03 28.97434 11 49 49.25 +03 08 29.2          19.8 R EF049J95

Observer details:
G96 Mt. Lemmon Survey.  Observer R. A. Kowalski.  Measurers E. C. Beshore,
    A. Boattini, G. J. Garradd, A. R. Gibbs, A. D. Grauer, R. E. Hill,
    R. A. Kowalski, S. M. Larson, R. H. McNaught.  1.5-m reflector + CCD.
J95 Great Shefford.  Observer P. Birtwhistle.  0.40-m f/6.0 Schmidt-Cassegrain
    + CCD.

Orbital elements:
2008 FE5                                                 Earth MOID = 0.1675 AU
Epoch 2008 May 14.0 TT = JDT 2454600.5                  MPC
M  73.97203              (2000.0)            P               Q
n   0.57391929     Peri.   93.65043     -0.18226759     -0.98236180
a   1.4340650      Node     7.26429     +0.71882483     -0.16210798
e   0.3440066      Incl.   19.28402     +0.67087211     -0.09320029
P   1.72           H   22.2           G   0.15           U   9
Residuals in seconds of arc
080328 G96  0.1+  0.3-    080328 G96  0.1+  0.2+    080328 J95  0.6-  0.3+
080328 G96  0.1-  0.2-    080328 G96  0.1-  0.0     080328 J95  0.8+  0.5-
080328 G96  0.0   0.1-    080328 G96  0.1+  0.4+    080328 J95  0.1-  0.1+
080328 G96  0.3-  0.1-    080328 G96  0.3+  0.3+    080328 J95  0.0   0.1+

Ephemeris:
2008 FE5                 a,e,i = 1.43, 0.34, 19                  q = 0.9407
Date    TT    R. A. (2000) Decl.     Delta      r     Elong.  Phase     V
2008 03 25    12 04.54   +07 46.0    0.214    1.209   169.9     8.3    19.8
2008 04 04    11 33.19   -02 25.7    0.274    1.261   159.7    15.9    20.8
2008 04 14    11 17.48   -08 43.5    0.353    1.314   147.3    24.4    21.7
2008 04 24    11 12.23   -12 41.1    0.443    1.365   137.4    29.9    22.4

Sonia Keys                   (C) Copyright 2008 MPC           M.P.E.C. 2008-F49

Read MPEC 2008-F48 Read MPEC 2008-F50


Our Web policy. Index to the CBAT/MPC/ICQ pages.


Valid HTML 4.01!